Location: Gwatt
(46.7204°N, 7.6223°E)
Time: 11:12:37
(UTC+00:00)

Cosmos 2151 Rocket - Pass Details

Date: 18 September 2020
Orbit: 618 x 642 km, 82.5° (Epoch: 24 October)

Event Time Altitude Azimuth Distance (km) Brightness Sun altitude
Rises 18:43:54 0° 166° (SSE) 2,899 6.7 -12.5°
Reaches altitude 10° 18:46:13 10° 159° (SSE) 2,001 5.8 -12.9°
Maximum altitude 18:50:18 38° 91° (E) 978 4.1 -13.6°
Drops below altitude 10° 18:54:28 10° 24° (NNE) 2,031 6.1 -14.3°
Sets 18:56:50 0° 17° (NNE) 2,948 7.1 -14.7°
